Simultaneous Nadir Overpasses (SNOs) Predictions

Prediction of SNOs between AQUA and METOP-C Satellite Orbit:

Table of predicted SNOs for the next 14.0 days since TLE Epoch: 3/16/2024
Index Date (AQUA) Time (AQUA) Lat,Lon (AQUA) SZA (AQUA ) Date (METOP-C) Time (METOP-C) Lat,Lon (METOP-C) SZA (METOP-C ) Distance(km) Time Diff (sec)
1 03/16/2024 12:43:23 75.20, -13.22 76.58 03/16/2024 12:42:57 75.21, -13.21 76.59 0.84 26
2 03/16/2024 13:32:46 -75.24, 154.31 103.39 03/16/2024 13:33:38 -75.28, 154.32 103.36 3.39 52
3 03/19/2024 04:54:57 75.22, 103.87 75.54 03/19/2024 04:54:35 75.22, 103.93 75.55 1.82 22
4 03/19/2024 05:44:20 -75.26, -88.59 104.43 03/19/2024 05:45:17 -75.25, -88.68 104.45 3.14 57
5 03/21/2024 21:06:28 75.20,-138.92 74.46 03/21/2024 21:06:12 75.24,-138.94 74.50 3.74 16
6 03/21/2024 21:55:52 -75.29, 28.50 105.46 03/21/2024 21:56:53 -75.30, 28.58 105.45 2.97 61
7 03/24/2024 12:28:29 -74.85, 171.54 106.95 03/24/2024 12:27:20 -74.80, 169.58 106.96 57.34 69
8 03/24/2024 13:18:00 75.24, -21.87 73.45 03/24/2024 13:17:50 75.24, -21.84 73.45 1.00 10
9 03/24/2024 14:07:23 -75.28, 145.69 106.53 03/24/2024 14:08:31 -75.31, 145.68 106.51 3.29 68
10 03/27/2024 04:40:05 -75.15, -72.09 107.70 03/27/2024 04:38:52 -75.09, -72.54 107.74 14.53 73
11 03/27/2024 05:29:30 75.25, 95.29 72.40 03/27/2024 05:29:28 75.24, 95.24 72.39 1.71 2
12 03/27/2024 06:18:55 -75.38, -97.41 107.48 03/27/2024 06:20:07 -75.40, -96.96 107.47 12.90 72
13 03/29/2024 20:51:35 -75.20, 44.93 108.69 03/29/2024 20:50:27 -75.22, 44.93 108.67 1.57 68
14 03/29/2024 21:40:59 75.26,-147.56 71.36 03/29/2024 21:41:05 75.28,-147.56 71.38 2.15 6



Historial Predications of SNOs between AQUA and METOP-C
